Time,TemperatureF,DewpointF,PressureIn,WindDirection,WindDirectionDegrees,WindSpeedMPH,WindSpeedGustMPH,Humidity,HourlyPrecipIn,Conditions,Clouds,dailyrainin,SoftwareType,DateUTC
2013-03-14 00:00:00,34.0,19.5,30.16,NNW,337,4.0,15.0,55,0.00,,,0.00,Weather View 32 v70,2013-03-14 04:00:00,
2013-03-14 00:05:00,34.0,19.5,30.17,NNW,337,7.0,15.0,55,0.00,,,0.00,Weather View 32 v70,2013-03-14 04:05:00,
2013-03-14 00:10:00,34.0,19.5,30.17,NW,315,5.0,15.0,55,0.00,,,0.00,Weather View 32 v70,2013-03-14 04:10:00,
2013-03-14 00:15:00,33.0,17.7,30.17,NW,315,7.0,15.0,53,0.00,,,0.00,Weather View 32 v70,2013-03-14 04:15:00,
2013-03-14 00:20:00,33.0,18.2,30.17,NNW,337,6.0,15.0,54,0.00,,,0.00,Weather View 32 v70,2013-03-14 04:20:00,
2013-03-14 00:25:00,33.0,17.7,30.17,NNW,337,9.0,15.0,53,0.00,,,0.00,Weather View 32 v70,2013-03-14 04:25:00,
2013-03-14 00:30:00,33.0,17.7,30.17,NNW,337,3.0,15.0,53,0.00,,,0.00,Weather View 32 v70,2013-03-14 04:30:00,
2013-03-14 00:35:00,33.0,18.2,30.17,NNW,337,4.0,15.0,54,0.00,,,0.00,Weather View 32 v70,2013-03-14 04:35:00,
2013-03-14 00:40:00,33.0,18.6,30.17,NNW,337,5.0,15.0,55,0.00,,,0.00,Weather View 32 v70,2013-03-14 04:40:00,
2013-03-14 00:45:00,33.0,17.7,30.17,NNW,337,11.0,15.0,53,0.00,,,0.00,Weather View 32 v70,2013-03-14 04:45:00,
2013-03-14 00:50:00,33.0,16.4,30.17,NNW,337,8.0,15.0,50,0.00,,,0.00,Weather View 32 v70,2013-03-14 04:50:00,
2013-03-14 00:55:00,33.0,16.4,30.17,North,360,6.0,15.0,50,0.00,,,0.00,Weather View 32 v70,2013-03-14 04:55:00,
2013-03-14 01:00:00,32.0,15.0,30.17,North,360,6.0,15.0,49,0.00,,,0.00,Weather View 32 v70,2013-03-14 05:00:00,
2013-03-14 01:05:00,32.0,15.0,30.17,NW,315,6.0,15.0,49,0.00,,,0.00,Weather View 32 v70,2013-03-14 05:05:00,
2013-03-14 01:10:00,32.0,14.5,30.17,NNW,337,6.0,15.0,48,0.00,,,0.00,Weather View 32 v70,2013-03-14 05:10:00,
2013-03-14 01:15:00,32.0,14.5,30.18,NNW,337,6.0,15.0,48,0.00,,,0.00,Weather View 32 v70,2013-03-14 05:15:00,
2013-03-14 01:20:00,32.0,14.5,30.18,NNW,337,1.0,15.0,48,0.00,,,0.00,Weather View 32 v70,2013-03-14 05:20:00,
2013-03-14 01:25:00,32.0,14.5,30.18,NW,315,0.0,15.0,48,0.00,,,0.00,Weather View 32 v70,2013-03-14 05:25:00,
2013-03-14 01:30:00,32.0,14.5,30.18,NNW,337,2.0,15.0,48,0.00,,,0.00,Weather View 32 v70,2013-03-14 05:30:00,
2013-03-14 01:35:00,32.0,14.5,30.19,NNW,337,7.0,15.0,48,0.00,,,0.00,Weather View 32 v70,2013-03-14 05:35:00,
2013-03-14 01:40:00,32.0,15.0,30.19,West,270,9.0,15.0,49,0.00,,,0.00,Weather View 32 v70,2013-03-14 05:40:00,
2013-03-14 01:45:00,32.0,14.0,30.19,WNW,292,6.0,18.0,47,0.00,,,0.00,Weather View 32 v70,2013-03-14 05:45:00,
2013-03-14 01:50:00,32.0,14.0,30.19,North,360,7.0,18.0,47,0.00,,,0.00,Weather View 32 v70,2013-03-14 05:50:00,
2013-03-14 01:55:00,32.0,14.0,30.19,NNW,337,8.0,18.0,47,0.00,,,0.00,Weather View 32 v70,2013-03-14 05:55:00,
2013-03-14 02:00:00,32.0,14.0,30.19,NW,315,9.0,18.0,47,0.00,,,0.00,Weather View 32 v70,2013-03-14 06:00:00,
2013-03-14 02:05:00,32.0,14.0,30.19,NW,315,6.0,18.0,47,0.00,,,0.00,Weather View 32 v70,2013-03-14 06:05:00,
2013-03-14 02:10:00,32.0,14.0,30.19,West,270,7.0,18.0,47,0.00,,,0.00,Weather View 32 v70,2013-03-14 06:10:00,
2013-03-14 02:15:00,32.0,13.5,30.19,WNW,292,9.0,18.0,46,0.00,,,0.00,Weather View 32 v70,2013-03-14 06:15:00,
2013-03-14 02:20:00,32.0,14.5,30.19,West,270,4.0,18.0,48,0.00,,,0.00,Weather View 32 v70,2013-03-14 06:20:00,
2013-03-14 02:25:00,32.0,14.0,30.19,NNW,337,3.0,18.0,47,0.00,,,0.00,Weather View 32 v70,2013-03-14 06:25:00,
2013-03-14 02:30:00,32.0,14.0,30.19,NW,315,9.0,18.0,47,0.00,,,0.00,Weather View 32 v70,2013-03-14 06:30:00,
2013-03-14 02:35:00,32.0,14.0,30.19,NW,315,7.0,18.0,47,0.00,,,0.00,Weather View 32 v70,2013-03-14 06:35:00,
2013-03-14 02:40:00,32.0,14.5,30.19,NW,315,7.0,18.0,48,0.00,,,0.00,Weather View 32 v70,2013-03-14 06:40:00,
2013-03-14 02:45:00,32.0,14.5,30.19,NW,315,4.0,16.0,48,0.00,,,0.00,Weather View 32 v70,2013-03-14 06:45:00,
2013-03-14 02:50:00,32.0,14.5,30.19,NW,315,6.0,16.0,48,0.00,,,0.00,Weather View 32 v70,2013-03-14 06:50:00,
2013-03-14 02:55:00,31.0,14.1,30.19,WNW,292,10.0,16.0,49,0.00,,,0.00,Weather View 32 v70,2013-03-14 06:55:00,
2013-03-14 03:00:00,31.0,13.6,30.19,NW,315,11.0,16.0,48,0.00,,,0.00,Weather View 32 v70,2013-03-14 07:00:00,
2013-03-14 03:05:00,31.0,14.1,30.19,NW,315,7.0,16.0,49,0.00,,,0.00,Weather View 32 v70,2013-03-14 07:05:00,
2013-03-14 03:10:00,31.0,14.1,30.19,NW,315,6.0,16.0,49,0.00,,,0.00,Weather View 32 v70,2013-03-14 07:10:00,
2013-03-14 03:15:00,31.0,14.5,30.19,NW,315,3.0,16.0,50,0.00,,,0.00,Weather View 32 v70,2013-03-14 07:15:00,
2013-03-14 03:20:00,31.0,14.1,30.19,NW,315,3.0,13.0,49,0.00,,,0.00,Weather View 32 v70,2013-03-14 07:20:00,
2013-03-14 03:25:00,31.0,15.4,30.19,NW,315,5.0,13.0,52,0.00,,,0.00,Weather View 32 v70,2013-03-14 07:25:00,
2013-03-14 03:31:00,31.0,15.4,30.19,NW,315,6.0,13.0,52,0.00,,,0.00,Weather View 32 v70,2013-03-14 07:31:00,
2013-03-14 03:36:00,31.0,15.9,30.19,NW,315,6.0,12.0,53,0.00,,,0.00,Weather View 32 v70,2013-03-14 07:36:00,
2013-03-14 03:41:00,30.0,15.4,30.19,NW,315,7.0,12.0,54,0.00,,,0.00,Weather View 32 v70,2013-03-14 07:41:00,
2013-03-14 03:46:00,30.0,15.4,30.19,NW,315,4.0,12.0,54,0.00,,,0.00,Weather View 32 v70,2013-03-14 07:46:00,
2013-03-14 03:51:00,30.0,15.4,30.19,WNW,292,5.0,12.0,54,0.00,,,0.00,Weather View 32 v70,2013-03-14 07:51:00,
2013-03-14 03:56:00,30.0,15.4,30.19,WNW,292,4.0,12.0,54,0.00,,,0.00,Weather View 32 v70,2013-03-14 07:56:00,
2013-03-14 04:01:00,30.0,14.9,30.19,WNW,292,5.0,12.0,53,0.00,,,0.00,Weather View 32 v70,2013-03-14 08:01:00,
2013-03-14 04:06:00,30.0,15.4,30.19,West,270,7.0,12.0,54,0.00,,,0.00,Weather View 32 v70,2013-03-14 08:06:00,
2013-03-14 04:11:00,30.0,14.9,30.19,NNW,337,3.0,12.0,53,0.00,,,0.00,Weather View 32 v70,2013-03-14 08:11:00,
2013-03-14 04:16:00,30.0,14.9,30.19,NNW,337,5.0,12.0,53,0.00,,,0.00,Weather View 32 v70,2013-03-14 08:16:00,
2013-03-14 04:21:00,30.0,14.9,30.19,NW,315,3.0,10.0,53,0.00,,,0.00,Weather View 32 v70,2013-03-14 08:21:00,
2013-03-14 04:26:00,30.0,15.4,30.19,West,270,3.0,12.0,54,0.00,,,0.00,Weather View 32 v70,2013-03-14 08:26:00,
2013-03-14 04:31:00,30.0,14.9,30.19,WNW,292,6.0,12.0,53,0.00,,,0.00,Weather View 32 v70,2013-03-14 08:31:00,
2013-03-14 04:36:00,30.0,15.4,30.19,WNW,292,7.0,12.0,54,0.00,,,0.00,Weather View 32 v70,2013-03-14 08:36:00,
2013-03-14 04:41:00,30.0,14.9,30.19,WNW,292,9.0,12.0,53,0.00,,,0.00,Weather View 32 v70,2013-03-14 08:41:00,
2013-03-14 04:46:00,30.0,15.4,30.19,NW,315,7.0,12.0,54,0.00,,,0.00,Weather View 32 v70,2013-03-14 08:46:00,
2013-03-14 04:51:00,30.0,15.4,30.19,WNW,292,5.0,12.0,54,0.00,,,0.00,Weather View 32 v70,2013-03-14 08:51:00,
2013-03-14 04:56:00,31.0,15.9,30.19,NW,315,7.0,17.0,53,0.00,,,0.00,Weather View 32 v70,2013-03-14 08:56:00,
2013-03-14 05:01:00,31.0,15.9,30.19,NW,315,5.0,19.0,53,0.00,,,0.00,Weather View 32 v70,2013-03-14 09:01:00,
2013-03-14 05:06:00,31.0,15.4,30.19,WNW,292,9.0,19.0,52,0.00,,,0.00,Weather View 32 v70,2013-03-14 09:06:00,
2013-03-14 05:11:00,31.0,15.0,30.19,North,360,15.0,19.0,51,0.00,,,0.00,Weather View 32 v70,2013-03-14 09:11:00,
2013-03-14 05:16:00,31.0,15.0,30.19,NNW,337,5.0,19.0,51,0.00,,,0.00,Weather View 32 v70,2013-03-14 09:16:00,
2013-03-14 05:21:00,31.0,14.5,30.19,NNW,337,15.0,19.0,50,0.00,,,0.00,Weather View 32 v70,2013-03-14 09:21:00,
2013-03-14 05:26:00,31.0,15.0,30.19,NNW,337,7.0,19.0,51,0.00,,,0.00,Weather View 32 v70,2013-03-14 09:26:00,
2013-03-14 05:31:00,31.0,15.0,30.19,WNW,292,15.0,19.0,51,0.00,,,0.00,Weather View 32 v70,2013-03-14 09:31:00,
2013-03-14 05:36:00,31.0,15.0,30.19,NW,315,7.0,19.0,51,0.00,,,0.00,Weather View 32 v70,2013-03-14 09:36:00,
2013-03-14 05:41:00,31.0,15.0,30.20,NNW,337,7.0,19.0,51,0.00,,,0.00,Weather View 32 v70,2013-03-14 09:41:00,
2013-03-14 05:47:00,31.0,15.0,30.20,NNW,337,11.0,19.0,51,0.00,,,0.00,Weather View 32 v70,2013-03-14 09:47:00,
2013-03-14 05:52:00,31.0,15.0,30.20,West,270,10.0,19.0,51,0.00,,,0.00,Weather View 32 v70,2013-03-14 09:52:00,
2013-03-14 05:57:00,31.0,15.4,30.20,West,270,10.0,19.0,52,0.00,,,0.00,Weather View 32 v70,2013-03-14 09:57:00,
2013-03-14 06:02:00,31.0,15.4,30.21,NW,315,8.0,19.0,52,0.00,,,0.00,Weather View 32 v70,2013-03-14 10:02:00,
2013-03-14 06:07:00,31.0,15.9,30.21,North,360,10.0,19.0,53,0.00,,,0.00,Weather View 32 v70,2013-03-14 10:07:00,
2013-03-14 06:12:00,30.0,15.4,30.21,NNW,337,9.0,19.0,54,0.00,,,0.00,Weather View 32 v70,2013-03-14 10:12:00,
2013-03-14 06:17:00,30.0,15.4,30.21,NW,315,3.0,19.0,54,0.00,,,0.00,Weather View 32 v70,2013-03-14 10:17:00,
2013-03-14 06:22:00,30.0,15.4,30.22,North,360,1.0,19.0,54,0.00,,,0.00,Weather View 32 v70,2013-03-14 10:22:00,
2013-03-14 06:27:00,30.0,16.6,30.22,WSW,247,4.0,19.0,57,0.00,,,0.00,Weather View 32 v70,2013-03-14 10:27:00,
2013-03-14 06:32:00,30.0,16.2,30.22,West,270,2.0,19.0,56,0.00,,,0.00,Weather View 32 v70,2013-03-14 10:32:00,
2013-03-14 06:37:00,30.0,16.2,30.22,West,270,6.0,18.0,56,0.00,,,0.00,Weather View 32 v70,2013-03-14 10:37:00,
2013-03-14 06:42:00,30.0,16.2,30.23,West,270,3.0,18.0,56,0.00,,,0.00,Weather View 32 v70,2013-03-14 10:42:00,
2013-03-14 06:50:00,30.0,16.2,30.23,NW,315,7.0,18.0,56,0.00,,,0.00,Weather View 32 v70,2013-03-14 10:50:00,
2013-03-14 06:55:00,30.0,15.8,30.23,NW,315,7.0,18.0,55,0.00,,,0.00,Weather View 32 v70,2013-03-14 10:55:00,
2013-03-14 07:04:00,30.0,15.8,30.23,NW,315,9.0,18.0,55,0.00,,,0.00,Weather View 32 v70,2013-03-14 11:04:00,
2013-03-14 07:09:00,30.0,15.8,30.23,NW,315,7.0,18.0,55,0.00,,,0.00,Weather View 32 v70,2013-03-14 11:09:00,
2013-03-14 07:14:00,30.0,15.8,30.23,WNW,292,10.0,16.0,55,0.00,,,0.00,Weather View 32 v70,2013-03-14 11:14:00,
2013-03-14 07:19:00,30.0,16.2,30.23,West,270,7.0,16.0,56,0.00,,,0.00,Weather View 32 v70,2013-03-14 11:19:00,
2013-03-14 07:24:00,30.0,16.6,30.23,WNW,292,7.0,16.0,57,0.00,,,0.00,Weather View 32 v70,2013-03-14 11:24:00,
2013-03-14 07:29:00,29.0,14.8,30.23,NW,315,4.0,16.0,55,0.00,,,0.00,Weather View 32 v70,2013-03-14 11:29:00,
2013-03-14 07:34:00,29.0,15.3,30.25,NW,315,0.0,16.0,56,0.00,,,0.00,Weather View 32 v70,2013-03-14 11:34:00,
2013-03-14 07:39:00,29.0,15.3,30.25,WNW,292,4.0,16.0,56,0.00,,,0.00,Weather View 32 v70,2013-03-14 11:39:00,
2013-03-14 07:44:00,29.0,15.7,30.24,West,270,3.0,16.0,57,0.00,,,0.00,Weather View 32 v70,2013-03-14 11:44:00,
2013-03-14 07:49:00,29.0,15.7,30.24,West,270,9.0,15.0,57,0.00,,,0.00,Weather View 32 v70,2013-03-14 11:49:00,
2013-03-14 07:54:00,29.0,15.3,30.24,West,270,6.0,14.0,56,0.00,,,0.00,Weather View 32 v70,2013-03-14 11:54:00,
2013-03-14 07:59:00,29.0,15.7,30.24,WNW,292,6.0,14.0,57,0.00,,,0.00,Weather View 32 v70,2013-03-14 11:59:00,
2013-03-14 08:04:00,29.0,15.7,30.25,NW,315,6.0,14.0,57,0.00,,,0.00,Weather View 32 v70,2013-03-14 12:04:00,
2013-03-14 08:09:00,29.0,15.3,30.25,West,270,4.0,13.0,56,0.00,,,0.00,Weather View 32 v70,2013-03-14 12:09:00,
2013-03-14 08:14:00,29.0,14.8,30.25,West,270,6.0,12.0,55,0.00,,,0.00,Weather View 32 v70,2013-03-14 12:14:00,
2013-03-14 08:19:00,29.0,15.3,30.25,WNW,292,4.0,12.0,56,0.00,,,0.00,Weather View 32 v70,2013-03-14 12:19:00,
2013-03-14 08:24:00,29.0,14.8,30.24,NW,315,5.0,11.0,55,0.00,,,0.00,Weather View 32 v70,2013-03-14 12:24:00,
2013-03-14 08:29:00,30.0,16.2,30.24,NW,315,7.0,11.0,56,0.00,,,0.00,Weather View 32 v70,2013-03-14 12:29:00,
2013-03-14 08:34:00,30.0,15.8,30.24,NW,315,1.0,11.0,55,0.00,,,0.00,Weather View 32 v70,2013-03-14 12:34:00,
2013-03-14 08:39:00,31.0,16.7,30.24,NW,315,3.0,11.0,55,0.00,,,0.00,Weather View 32 v70,2013-03-14 12:39:00,
2013-03-14 08:44:00,31.0,16.7,30.25,WNW,292,7.0,11.0,55,0.00,,,0.00,Weather View 32 v70,2013-03-14 12:44:00,
2013-03-14 08:49:00,32.0,17.2,30.25,West,270,9.0,12.0,54,0.00,,,0.00,Weather View 32 v70,2013-03-14 12:49:00,
2013-03-14 08:54:00,32.0,16.8,30.25,NW,315,12.0,17.0,53,0.00,,,0.00,Weather View 32 v70,2013-03-14 12:54:00,
2013-03-14 08:59:00,32.0,16.4,30.25,WNW,292,16.0,17.0,52,0.00,,,0.00,Weather View 32 v70,2013-03-14 12:59:00,
2013-03-14 09:04:00,33.0,17.3,30.26,NNW,337,11.0,17.0,52,0.00,,,0.00,Weather View 32 v70,2013-03-14 13:04:00,
2013-03-14 09:09:00,33.0,16.8,30.26,NW,315,8.0,17.0,51,0.00,,,0.00,Weather View 32 v70,2013-03-14 13:09:00,
2013-03-14 09:14:00,33.0,16.8,30.25,NW,315,4.0,19.0,51,0.00,,,0.00,Weather View 32 v70,2013-03-14 13:14:00,
2013-03-14 09:19:00,33.0,16.4,30.25,NW,315,6.0,19.0,50,0.00,,,0.00,Weather View 32 v70,2013-03-14 13:19:00,
2013-03-14 09:24:00,34.0,16.8,30.25,WNW,292,14.0,19.0,49,0.00,,,0.00,Weather View 32 v70,2013-03-14 13:24:00,
2013-03-14 09:29:00,33.0,15.9,30.25,West,270,8.0,19.0,49,0.00,,,0.00,Weather View 32 v70,2013-03-14 13:29:00,
2013-03-14 09:34:00,34.0,16.4,30.26,NW,315,13.0,19.0,48,0.00,,,0.00,Weather View 32 v70,2013-03-14 13:34:00,
2013-03-14 09:39:00,34.0,16.4,30.26,WNW,292,12.0,19.0,48,0.00,,,0.00,Weather View 32 v70,2013-03-14 13:39:00,
2013-03-14 09:44:00,34.0,15.9,30.26,WNW,292,8.0,19.0,47,0.00,,,0.00,Weather View 32 v70,2013-03-14 13:44:00,
2013-03-14 09:49:00,34.0,15.9,30.26,NW,315,8.0,19.0,47,0.00,,,0.00,Weather View 32 v70,2013-03-14 13:49:00,
2013-03-14 09:54:00,35.0,16.8,30.26,WNW,292,6.0,19.0,47,0.00,,,0.00,Weather View 32 v70,2013-03-14 13:54:00,
2013-03-14 09:59:00,35.0,16.8,30.26,West,270,14.0,19.0,47,0.00,,,0.00,Weather View 32 v70,2013-03-14 13:59:00,
2013-03-14 10:04:00,35.0,16.8,30.26,WNW,292,7.0,19.0,47,0.00,,,0.00,Weather View 32 v70,2013-03-14 14:04:00,
2013-03-14 10:09:00,35.0,16.3,30.26,NW,315,18.0,19.0,46,0.00,,,0.00,Weather View 32 v70,2013-03-14 14:09:00,
2013-03-14 10:14:00,35.0,15.8,30.26,West,270,13.0,19.0,45,0.00,,,0.00,Weather View 32 v70,2013-03-14 14:14:00,
2013-03-14 10:19:00,36.0,16.2,30.26,WNW,292,10.0,19.0,44,0.00,,,0.00,Weather View 32 v70,2013-03-14 14:19:00,
2013-03-14 10:24:00,36.0,16.2,30.26,North,360,1.0,21.0,44,0.00,,,0.00,Weather View 32 v70,2013-03-14 14:24:00,
2013-03-14 10:29:00,37.0,17.6,30.26,NW,315,0.0,21.0,45,0.00,,,0.00,Weather View 32 v70,2013-03-14 14:29:00,
2013-03-14 10:34:00,38.0,18.0,30.25,NNW,337,6.0,21.0,44,0.00,,,0.00,Weather View 32 v70,2013-03-14 14:34:00,
2013-03-14 10:39:00,38.0,16.4,30.25,NW,315,10.0,21.0,41,0.00,,,0.00,Weather View 32 v70,2013-03-14 14:39:00,
2013-03-14 10:44:00,37.0,16.0,30.25,West,270,14.0,21.0,42,0.00,,,0.00,Weather View 32 v70,2013-03-14 14:44:00,
2013-03-14 10:49:00,37.0,16.6,30.25,NW,315,11.0,21.0,43,0.00,,,0.00,Weather View 32 v70,2013-03-14 14:49:00,
2013-03-14 10:54:00,37.0,15.5,30.25,NW,315,6.0,21.0,41,0.00,,,0.00,Weather View 32 v70,2013-03-14 14:54:00,
2013-03-14 10:59:00,37.0,16.0,30.25,NNW,337,6.0,21.0,42,0.00,,,0.00,Weather View 32 v70,2013-03-14 14:59:00,
2013-03-14 11:04:00,37.0,15.5,30.25,West,270,12.0,21.0,41,0.00,,,0.00,Weather View 32 v70,2013-03-14 15:04:00,
2013-03-14 11:09:00,38.0,16.4,30.25,NW,315,9.0,21.0,41,0.00,,,0.00,Weather View 32 v70,2013-03-14 15:09:00,
2013-03-14 11:14:00,38.0,17.5,30.25,NW,315,6.0,21.0,43,0.00,,,0.00,Weather View 32 v70,2013-03-14 15:14:00,
2013-03-14 11:19:00,39.0,17.3,30.25,WNW,292,5.0,21.0,41,0.00,,,0.00,Weather View 32 v70,2013-03-14 15:19:00,
2013-03-14 11:24:00,39.0,17.3,30.23,West,270,8.0,17.0,41,0.00,,,0.00,Weather View 32 v70,2013-03-14 15:24:00,
2013-03-14 11:29:00,39.0,18.4,30.23,NW,315,6.0,17.0,43,0.00,,,0.00,Weather View 32 v70,2013-03-14 15:29:00,
2013-03-14 11:34:00,39.0,17.3,30.24,NW,315,8.0,17.0,41,0.00,,,0.00,Weather View 32 v70,2013-03-14 15:34:00,
2013-03-14 11:39:00,39.0,17.3,30.24,West,270,6.0,17.0,41,0.00,,,0.00,Weather View 32 v70,2013-03-14 15:39:00,
2013-03-14 11:44:00,40.0,18.7,30.24,WNW,292,8.0,17.0,42,0.00,,,0.00,Weather View 32 v70,2013-03-14 15:44:00,
2013-03-14 11:49:00,40.0,16.4,30.24,NW,315,10.0,16.0,38,0.00,,,0.00,Weather View 32 v70,2013-03-14 15:49:00,
2013-03-14 11:54:00,40.0,16.4,30.23,WNW,292,3.0,18.0,38,0.00,,,0.00,Weather View 32 v70,2013-03-14 15:54:00,
2013-03-14 11:59:00,41.0,17.9,30.23,North,360,2.0,18.0,39,0.00,,,0.00,Weather View 32 v70,2013-03-14 15:59:00,
2013-03-14 12:04:00,42.0,18.2,30.23,North,360,9.0,18.0,38,0.00,,,0.00,Weather View 32 v70,2013-03-14 16:04:00,
2013-03-14 12:09:00,42.0,18.2,30.23,West,270,6.0,18.0,38,0.00,,,0.00,Weather View 32 v70,2013-03-14 16:09:00,
2013-03-14 12:14:00,41.0,16.7,30.22,NW,315,5.0,18.0,37,0.00,,,0.00,Weather View 32 v70,2013-03-14 16:14:00,
2013-03-14 12:19:00,42.0,18.2,30.22,NW,315,5.0,18.0,38,0.00,,,0.00,Weather View 32 v70,2013-03-14 16:19:00,
2013-03-14 12:24:00,42.0,17.6,30.21,West,270,9.0,18.0,37,0.00,,,0.00,Weather View 32 v70,2013-03-14 16:24:00,
2013-03-14 12:29:00,42.0,17.6,30.21,NNW,337,5.0,18.0,37,0.00,,,0.00,Weather View 32 v70,2013-03-14 16:29:00,
2013-03-14 12:34:00,42.0,17.6,30.21,NE,45,1.0,18.0,37,0.00,,,0.00,Weather View 32 v70,2013-03-14 16:34:00,
2013-03-14 12:39:00,42.0,16.9,30.21,West,270,6.0,18.0,36,0.00,,,0.00,Weather View 32 v70,2013-03-14 16:39:00,
2013-03-14 12:44:00,43.0,17.8,30.20,West,270,7.0,18.0,36,0.00,,,0.00,Weather View 32 v70,2013-03-14 16:44:00,
2013-03-14 12:50:00,44.0,19.4,30.20,West,270,8.0,18.0,37,0.00,,,0.00,Weather View 32 v70,2013-03-14 16:50:00,
2013-03-14 12:55:00,44.0,18.7,30.19,West,270,9.0,16.0,36,0.00,,,0.00,Weather View 32 v70,2013-03-14 16:55:00,
2013-03-14 13:00:00,44.0,18.7,30.19,West,270,7.0,16.0,36,0.00,,,0.00,Weather View 32 v70,2013-03-14 17:00:00,
2013-03-14 13:05:00,44.0,18.7,30.19,West,270,6.0,16.0,36,0.00,,,0.00,Weather View 32 v70,2013-03-14 17:05:00,
2013-03-14 13:10:00,45.0,19.6,30.19,NW,315,8.0,16.0,36,0.00,,,0.00,Weather View 32 v70,2013-03-14 17:10:00,
2013-03-14 13:15:00,45.0,18.3,30.19,WSW,247,12.0,16.0,34,0.00,,,0.00,Weather View 32 v70,2013-03-14 17:15:00,
2013-03-14 13:20:00,46.0,19.2,30.19,NW,315,5.0,16.0,34,0.00,,,0.00,Weather View 32 v70,2013-03-14 17:20:00,
2013-03-14 13:25:00,46.0,19.2,30.18,WNW,292,0.0,16.0,34,0.00,,,0.00,Weather View 32 v70,2013-03-14 17:25:00,
2013-03-14 13:30:00,46.0,19.2,30.18,SSW,202,7.0,16.0,34,0.00,,,0.00,Weather View 32 v70,2013-03-14 17:30:00,
2013-03-14 13:35:00,47.0,19.3,30.17,West,270,9.0,16.0,33,0.00,,,0.00,Weather View 32 v70,2013-03-14 17:35:00,
2013-03-14 13:40:00,46.0,19.2,30.17,West,270,11.0,16.0,34,0.00,,,0.00,Weather View 32 v70,2013-03-14 17:40:00,
2013-03-14 13:45:00,47.0,17.9,30.17,North,360,9.0,15.0,31,0.00,,,0.00,Weather View 32 v70,2013-03-14 17:45:00,
2013-03-14 13:50:00,47.0,17.9,30.17,West,270,7.0,15.0,31,0.00,,,0.00,Weather View 32 v70,2013-03-14 17:50:00,
2013-03-14 13:55:00,47.0,18.6,30.16,West,270,8.0,15.0,32,0.00,,,0.00,Weather View 32 v70,2013-03-14 17:55:00,
2013-03-14 14:00:00,47.0,18.6,30.16,West,270,3.0,15.0,32,0.00,,,0.00,Weather View 32 v70,2013-03-14 18:00:00,
2013-03-14 14:05:00,46.0,17.0,30.16,West,270,10.0,16.0,31,0.00,,,0.00,Weather View 32 v70,2013-03-14 18:05:00,
2013-03-14 14:10:00,46.0,17.7,30.16,NW,315,8.0,18.0,32,0.00,,,0.00,Weather View 32 v70,2013-03-14 18:10:00,
2013-03-14 14:15:00,47.0,19.3,30.16,WSW,247,9.0,18.0,33,0.00,,,0.00,Weather View 32 v70,2013-03-14 18:15:00,
2013-03-14 14:20:00,47.0,17.9,30.16,WNW,292,10.0,18.0,31,0.00,,,0.00,Weather View 32 v70,2013-03-14 18:20:00,
2013-03-14 14:25:00,47.0,17.9,30.16,West,270,7.0,18.0,31,0.00,,,0.00,Weather View 32 v70,2013-03-14 18:25:00,
2013-03-14 14:30:00,47.0,18.6,30.16,WSW,247,13.0,18.0,32,0.00,,,0.00,Weather View 32 v70,2013-03-14 18:30:00,
2013-03-14 14:35:00,47.0,17.9,30.15,West,270,13.0,18.0,31,0.00,,,0.00,Weather View 32 v70,2013-03-14 18:35:00,
2013-03-14 14:40:00,47.0,16.3,30.15,WNW,292,16.0,19.0,29,0.00,,,0.00,Weather View 32 v70,2013-03-14 18:40:00,
2013-03-14 14:45:00,47.0,17.1,30.15,West,270,12.0,20.0,30,0.00,,,0.00,Weather View 32 v70,2013-03-14 18:45:00,
2013-03-14 14:50:00,48.0,18.0,30.15,NW,315,12.0,20.0,30,0.00,,,0.00,Weather View 32 v70,2013-03-14 18:50:00,
2013-03-14 14:55:00,48.0,17.2,30.14,WNW,292,10.0,20.0,29,0.00,,,0.00,Weather View 32 v70,2013-03-14 18:55:00,
2013-03-14 15:00:00,48.0,18.0,30.14,NW,315,9.0,20.0,30,0.00,,,0.00,Weather View 32 v70,2013-03-14 19:00:00,
2013-03-14 15:05:00,48.0,18.0,30.14,WSW,247,9.0,20.0,30,0.00,,,0.00,Weather View 32 v70,2013-03-14 19:05:00,
2013-03-14 15:10:00,48.0,18.8,30.14,West,270,10.0,20.0,31,0.00,,,0.00,Weather View 32 v70,2013-03-14 19:10:00,
2013-03-14 15:15:00,48.0,17.2,30.13,West,270,16.0,20.0,29,0.00,,,0.00,Weather View 32 v70,2013-03-14 19:15:00,
2013-03-14 15:20:00,48.0,18.0,30.13,West,270,11.0,20.0,30,0.00,,,0.00,Weather View 32 v70,2013-03-14 19:20:00,
2013-03-14 15:25:00,48.0,18.0,30.13,WNW,292,8.0,20.0,30,0.00,,,0.00,Weather View 32 v70,2013-03-14 19:25:00,
2013-03-14 15:30:00,49.0,18.1,30.13,West,270,15.0,20.0,29,0.00,,,0.00,Weather View 32 v70,2013-03-14 19:30:00,
2013-03-14 15:35:00,49.0,16.4,30.13,North,360,12.0,20.0,27,0.00,,,0.00,Weather View 32 v70,2013-03-14 19:35:00,
2013-03-14 15:40:00,49.0,17.3,30.13,NW,315,12.0,20.0,28,0.00,,,0.00,Weather View 32 v70,2013-03-14 19:40:00,
2013-03-14 15:45:00,49.0,18.1,30.12,NNW,337,5.0,20.0,29,0.00,,,0.00,Weather View 32 v70,2013-03-14 19:45:00,
2013-03-14 15:50:00,49.0,18.1,30.12,NW,315,6.0,19.0,29,0.00,,,0.00,Weather View 32 v70,2013-03-14 19:50:00,
2013-03-14 15:55:00,49.0,18.1,30.11,West,270,13.0,19.0,29,0.00,,,0.00,Weather View 32 v70,2013-03-14 19:55:00,
2013-03-14 16:00:00,49.0,18.1,30.11,West,270,15.0,19.0,29,0.00,,,0.00,Weather View 32 v70,2013-03-14 20:00:00,
2013-03-14 16:05:00,49.0,18.1,30.11,NW,315,9.0,19.0,29,0.00,,,0.00,Weather View 32 v70,2013-03-14 20:05:00,
2013-03-14 16:10:00,50.0,18.9,30.11,WNW,292,10.0,19.0,29,0.00,,,0.00,Weather View 32 v70,2013-03-14 20:10:00,
2013-03-14 16:15:00,50.0,18.1,30.11,WNW,292,6.0,19.0,28,0.00,,,0.00,Weather View 32 v70,2013-03-14 20:15:00,
2013-03-14 16:20:00,50.0,18.1,30.11,NW,315,10.0,20.0,28,0.00,,,0.00,Weather View 32 v70,2013-03-14 20:20:00,
2013-03-14 16:25:00,50.0,16.4,30.11,NW,315,7.0,20.0,26,0.00,,,0.00,Weather View 32 v70,2013-03-14 20:25:00,
2013-03-14 16:30:00,50.0,16.4,30.11,NW,315,12.0,20.0,26,0.00,,,0.00,Weather View 32 v70,2013-03-14 20:30:00,
2013-03-14 16:35:00,50.0,15.5,30.10,WNW,292,6.0,20.0,25,0.00,,,0.00,Weather View 32 v70,2013-03-14 20:35:00,
2013-03-14 16:40:00,51.0,17.3,30.10,NW,315,7.0,20.0,26,0.00,,,0.00,Weather View 32 v70,2013-03-14 20:40:00,
2013-03-14 16:45:00,51.0,17.3,30.10,West,270,4.0,20.0,26,0.00,,,0.00,Weather View 32 v70,2013-03-14 20:45:00,
2013-03-14 16:50:00,51.0,17.3,30.10,WNW,292,7.0,20.0,26,0.00,,,0.00,Weather View 32 v70,2013-03-14 20:50:00,
2013-03-14 16:55:00,50.0,15.5,30.10,West,270,7.0,20.0,25,0.00,,,0.00,Weather View 32 v70,2013-03-14 20:55:00,
2013-03-14 17:00:00,50.0,15.5,30.10,NW,315,6.0,20.0,25,0.00,,,0.00,Weather View 32 v70,2013-03-14 21:00:00,
2013-03-14 17:05:00,51.0,17.3,30.09,WSW,247,4.0,20.0,26,0.00,,,0.00,Weather View 32 v70,2013-03-14 21:05:00,
2013-03-14 17:10:00,51.0,16.4,30.09,NNW,337,10.0,20.0,25,0.00,,,0.00,Weather View 32 v70,2013-03-14 21:10:00,
2013-03-14 17:15:00,51.0,16.4,30.09,West,270,8.0,20.0,25,0.00,,,0.00,Weather View 32 v70,2013-03-14 21:15:00,
2013-03-14 17:20:00,51.0,18.1,30.09,North,360,13.0,19.0,27,0.00,,,0.00,Weather View 32 v70,2013-03-14 21:20:00,
2013-03-14 17:25:00,51.0,17.3,30.09,West,270,6.0,19.0,26,0.00,,,0.00,Weather View 32 v70,2013-03-14 21:25:00,
2013-03-14 17:30:00,50.0,16.4,30.09,West,270,8.0,19.0,26,0.00,,,0.00,Weather View 32 v70,2013-03-14 21:30:00,
2013-03-14 17:35:00,50.0,17.3,30.09,West,270,12.0,19.0,27,0.00,,,0.00,Weather View 32 v70,2013-03-14 21:35:00,
2013-03-14 17:40:00,50.0,17.3,30.09,West,270,8.0,22.0,27,0.00,,,0.00,Weather View 32 v70,2013-03-14 21:40:00,
2013-03-14 17:45:00,51.0,19.0,30.09,West,270,16.0,22.0,28,0.00,,,0.00,Weather View 32 v70,2013-03-14 21:45:00,
2013-03-14 17:50:00,50.0,16.4,30.09,WSW,247,11.0,22.0,26,0.00,,,0.00,Weather View 32 v70,2013-03-14 21:50:00,
2013-03-14 17:55:00,50.0,16.4,30.08,WSW,247,9.0,22.0,26,0.00,,,0.00,Weather View 32 v70,2013-03-14 21:55:00,
2013-03-14 18:00:00,50.0,17.3,30.08,West,270,11.0,22.0,27,0.00,,,0.00,Weather View 32 v70,2013-03-14 22:00:00,
2013-03-14 18:05:00,51.0,19.0,30.09,WSW,247,12.0,22.0,28,0.00,,,0.00,Weather View 32 v70,2013-03-14 22:05:00,
2013-03-14 18:10:00,51.0,18.1,30.09,NW,315,5.0,22.0,27,0.00,,,0.00,Weather View 32 v70,2013-03-14 22:10:00,
2013-03-14 18:15:00,51.0,17.3,30.09,West,270,12.0,22.0,26,0.00,,,0.00,Weather View 32 v70,2013-03-14 22:15:00,
2013-03-14 18:20:00,50.0,18.1,30.09,WNW,292,7.0,22.0,28,0.00,,,0.00,Weather View 32 v70,2013-03-14 22:20:00,
2013-03-14 18:25:00,51.0,18.1,30.09,WNW,292,10.0,22.0,27,0.00,,,0.00,Weather View 32 v70,2013-03-14 22:25:00,
2013-03-14 18:30:00,51.0,17.3,30.09,West,270,7.0,22.0,26,0.00,,,0.00,Weather View 32 v70,2013-03-14 22:30:00,
2013-03-14 18:35:00,50.0,16.4,30.08,West,270,7.0,22.0,26,0.00,,,0.00,Weather View 32 v70,2013-03-14 22:35:00,
2013-03-14 18:40:00,50.0,16.4,30.08,West,270,6.0,17.0,26,0.00,,,0.00,Weather View 32 v70,2013-03-14 22:40:00,
2013-03-14 18:45:00,50.0,16.4,30.09,WNW,292,6.0,17.0,26,0.00,,,0.00,Weather View 32 v70,2013-03-14 22:45:00,
2013-03-14 18:50:00,49.0,16.4,30.09,NW,315,7.0,16.0,27,0.00,,,0.00,Weather View 32 v70,2013-03-14 22:50:00,
2013-03-14 18:55:00,49.0,17.3,30.09,West,270,4.0,16.0,28,0.00,,,0.00,Weather View 32 v70,2013-03-14 22:55:00,
2013-03-14 19:00:00,49.0,16.4,30.09,WNW,292,6.0,15.0,27,0.00,,,0.00,Weather View 32 v70,2013-03-14 23:00:00,
2013-03-14 19:05:00,49.0,16.4,30.09,WNW,292,3.0,15.0,27,0.00,,,0.00,Weather View 32 v70,2013-03-14 23:05:00,
2013-03-14 19:10:00,48.0,17.2,30.09,West,270,5.0,15.0,29,0.00,,,0.00,Weather View 32 v70,2013-03-14 23:10:00,
2013-03-14 19:15:00,48.0,16.4,30.10,West,270,9.0,15.0,28,0.00,,,0.00,Weather View 32 v70,2013-03-14 23:15:00,
2013-03-14 19:20:00,48.0,16.4,30.10,West,270,7.0,15.0,28,0.00,,,0.00,Weather View 32 v70,2013-03-14 23:20:00,
2013-03-14 19:25:00,48.0,18.0,30.09,West,270,7.0,15.0,30,0.00,,,0.00,Weather View 32 v70,2013-03-14 23:25:00,
2013-03-14 19:30:00,47.0,16.3,30.09,West,270,2.0,15.0,29,0.00,,,0.00,Weather View 32 v70,2013-03-14 23:30:00,
2013-03-14 19:35:00,47.0,17.1,30.09,NW,315,3.0,14.0,30,0.00,,,0.00,Weather View 32 v70,2013-03-14 23:35:00,
2013-03-14 19:40:00,47.0,17.9,30.09,NW,315,3.0,14.0,31,0.00,,,0.00,Weather View 32 v70,2013-03-14 23:40:00,
2013-03-14 19:45:00,47.0,17.9,30.09,NW,315,1.0,13.0,31,0.00,,,0.00,Weather View 32 v70,2013-03-14 23:45:00,
2013-03-14 19:50:00,46.0,17.0,30.09,NW,315,0.0,13.0,31,0.00,,,0.00,Weather View 32 v70,2013-03-14 23:50:00,
2013-03-14 19:55:00,46.0,17.0,30.10,NW,315,3.0,12.0,31,0.00,,,0.00,Weather View 32 v70,2013-03-14 23:55:00,
2013-03-14 20:00:00,46.0,17.7,30.10,NW,315,5.0,12.0,32,0.00,,,0.00,Weather View 32 v70,2013-03-15 00:00:00,
2013-03-14 20:05:00,46.0,17.7,30.10,NW,315,4.0,12.0,32,0.00,,,0.00,Weather View 32 v70,2013-03-15 00:05:00,
2013-03-14 20:10:00,45.0,16.9,30.10,NW,315,4.0,12.0,32,0.00,,,0.00,Weather View 32 v70,2013-03-15 00:10:00,
2013-03-14 20:16:00,45.0,16.9,30.11,NW,315,5.0,12.0,32,0.00,,,0.00,Weather View 32 v70,2013-03-15 00:16:00,
2013-03-14 20:21:00,45.0,16.9,30.11,NW,315,3.0,9.0,32,0.00,,,0.00,Weather View 32 v70,2013-03-15 00:21:00,
2013-03-14 20:26:00,45.0,17.6,30.11,NW,315,5.0,9.0,33,0.00,,,0.00,Weather View 32 v70,2013-03-15 00:26:00,
2013-03-14 20:31:00,44.0,16.7,30.11,NW,315,6.0,9.0,33,0.00,,,0.00,Weather View 32 v70,2013-03-15 00:31:00,
2013-03-14 20:36:00,44.0,17.4,30.11,NW,315,3.0,9.0,34,0.00,,,0.00,Weather View 32 v70,2013-03-15 00:36:00,
2013-03-14 20:41:00,44.0,16.7,30.11,NW,315,4.0,9.0,33,0.00,,,0.00,Weather View 32 v70,2013-03-15 00:41:00,
2013-03-14 20:46:00,44.0,17.4,30.12,NW,315,3.0,9.0,34,0.00,,,0.00,Weather View 32 v70,2013-03-15 00:46:00,
2013-03-14 20:51:00,44.0,18.1,30.12,NW,315,4.0,9.0,35,0.00,,,0.00,Weather View 32 v70,2013-03-15 00:51:00,
2013-03-14 20:56:00,44.0,18.1,30.12,NW,315,4.0,9.0,35,0.00,,,0.00,Weather View 32 v70,2013-03-15 00:56:00,
2013-03-14 21:01:00,44.0,17.4,30.12,NW,315,4.0,9.0,34,0.00,,,0.00,Weather View 32 v70,2013-03-15 01:01:00,
2013-03-14 21:06:00,44.0,18.1,30.12,NW,315,3.0,9.0,35,0.00,,,0.00,Weather View 32 v70,2013-03-15 01:06:00,
2013-03-14 21:11:00,44.0,17.4,30.12,NW,315,4.0,9.0,34,0.00,,,0.00,Weather View 32 v70,2013-03-15 01:11:00,
2013-03-14 21:16:00,43.0,16.5,30.12,NW,315,4.0,9.0,34,0.00,,,0.00,Weather View 32 v70,2013-03-15 01:16:00,
2013-03-14 21:21:00,43.0,17.2,30.12,NW,315,5.0,9.0,35,0.00,,,0.00,Weather View 32 v70,2013-03-15 01:21:00,
2013-03-14 21:26:00,43.0,17.2,30.13,NW,315,7.0,9.0,35,0.00,,,0.00,Weather View 32 v70,2013-03-15 01:26:00,
2013-03-14 21:32:00,43.0,17.2,30.13,NW,315,2.0,9.0,35,0.00,,,0.00,Weather View 32 v70,2013-03-15 01:32:00,
2013-03-14 21:37:00,43.0,16.5,30.12,NW,315,5.0,9.0,34,0.00,,,0.00,Weather View 32 v70,2013-03-15 01:37:00,
2013-03-14 21:42:00,43.0,16.5,30.13,NW,315,5.0,9.0,34,0.00,,,0.00,Weather View 32 v70,2013-03-15 01:42:00,
2013-03-14 21:47:00,42.0,16.3,30.13,NW,315,3.0,9.0,35,0.00,,,0.00,Weather View 32 v70,2013-03-15 01:47:00,
2013-03-14 21:52:00,43.0,17.2,30.12,NW,315,4.0,9.0,35,0.00,,,0.00,Weather View 32 v70,2013-03-15 01:52:00,
2013-03-14 21:57:00,42.0,16.3,30.12,NW,315,5.0,9.0,35,0.00,,,0.00,Weather View 32 v70,2013-03-15 01:57:00,
2013-03-14 22:02:00,42.0,16.3,30.13,NW,315,4.0,9.0,35,0.00,,,0.00,Weather View 32 v70,2013-03-15 02:02:00,
2013-03-14 22:07:00,42.0,16.3,30.13,NW,315,5.0,9.0,35,0.00,,,0.00,Weather View 32 v70,2013-03-15 02:07:00,
2013-03-14 22:12:00,42.0,16.3,30.13,NW,315,8.0,9.0,35,0.00,,,0.00,Weather View 32 v70,2013-03-15 02:12:00,
2013-03-14 22:17:00,42.0,16.3,30.13,NNW,337,4.0,9.0,35,0.00,,,0.00,Weather View 32 v70,2013-03-15 02:17:00,
2013-03-14 22:22:00,42.0,16.3,30.13,NW,315,2.0,9.0,35,0.00,,,0.00,Weather View 32 v70,2013-03-15 02:22:00,
2013-03-14 22:27:00,42.0,16.9,30.13,NW,315,5.0,9.0,36,0.00,,,0.00,Weather View 32 v70,2013-03-15 02:27:00,
2013-03-14 22:32:00,42.0,17.6,30.14,NW,315,1.0,9.0,37,0.00,,,0.00,Weather View 32 v70,2013-03-15 02:32:00,
2013-03-14 22:37:00,41.0,16.1,30.14,NW,315,4.0,9.0,36,0.00,,,0.00,Weather View 32 v70,2013-03-15 02:37:00,
2013-03-14 22:42:00,41.0,17.3,30.15,NW,315,5.0,9.0,38,0.00,,,0.00,Weather View 32 v70,2013-03-15 02:42:00,
2013-03-14 22:47:00,41.0,17.3,30.15,NW,315,5.0,9.0,38,0.00,,,0.00,Weather View 32 v70,2013-03-15 02:47:00,
2013-03-14 22:52:00,41.0,17.9,30.15,NW,315,4.0,9.0,39,0.00,,,0.00,Weather View 32 v70,2013-03-15 02:52:00,
2013-03-14 22:57:00,41.0,17.3,30.15,NW,315,4.0,9.0,38,0.00,,,0.00,Weather View 32 v70,2013-03-15 02:57:00,
2013-03-14 23:02:00,41.0,17.3,30.15,NW,315,3.0,9.0,38,0.00,,,0.00,Weather View 32 v70,2013-03-15 03:02:00,
2013-03-14 23:07:00,41.0,17.3,30.15,NW,315,4.0,9.0,38,0.00,,,0.00,Weather View 32 v70,2013-03-15 03:07:00,
2013-03-14 23:12:00,41.0,17.9,30.15,NW,315,2.0,9.0,39,0.00,,,0.00,Weather View 32 v70,2013-03-15 03:12:00,
2013-03-14 23:17:00,41.0,17.9,30.15,NW,315,3.0,9.0,39,0.00,,,0.00,Weather View 32 v70,2013-03-15 03:17:00,
2013-03-14 23:23:00,41.0,18.5,30.15,NW,315,2.0,9.0,40,0.00,,,0.00,Weather View 32 v70,2013-03-15 03:23:00,
2013-03-14 23:28:00,40.0,18.2,30.15,NW,315,0.0,9.0,41,0.00,,,0.00,Weather View 32 v70,2013-03-15 03:28:00,
2013-03-14 23:32:00,40.0,18.7,30.15,NW,315,0.0,7.0,42,0.00,,,0.00,Weather View 32 v70,2013-03-15 03:32:00,
2013-03-14 23:38:00,40.0,18.7,30.15,NW,315,0.0,7.0,42,0.00,,,0.00,Weather View 32 v70,2013-03-15 03:38:00,
2013-03-14 23:43:00,40.0,19.8,30.15,NW,315,0.0,7.0,44,0.00,,,0.00,Weather View 32 v70,2013-03-15 03:43:00,
2013-03-14 23:48:00,40.0,20.9,30.15,NW,315,0.0,7.0,46,0.00,,,0.00,Weather View 32 v70,2013-03-15 03:48:00,
2013-03-14 23:53:00,40.0,22.4,30.15,NW,315,0.0,7.0,49,0.00,,,0.00,Weather View 32 v70,2013-03-15 03:53:00,
2013-03-14 23:58:00,40.0,23.3,30.15,NW,315,0.0,7.0,51,0.00,,,0.00,Weather View 32 v70,2013-03-15 03:58:00,